Location: ???????
(54.9996°N, 37.9529°E)
Time: 05:33:23
(UTC+00:00)

Cosmos 1980 - Pass Details

Date: 14 April 2024
Orbit: 840 x 845 km, 71.0° (Epoch: 23 May)

Event Time Altitude Azimuth Distance (km) Brightness Sun altitude
Exits shadow 01:30:56 - 217° (SW) 2,683 5.7 -8.2°
Reaches altitude 10° 01:31:32 10° 217° (SW) 2,458 5.5 -8.1°
Maximum altitude 01:37:11 79° 305° (NW) 863 3.7 -7.4°
Drops below altitude 10° 01:42:52 10° 32° (NNE) 2,470 7.2 -6.6°
Sets 01:45:20 0° 34° (NE) 3,408 8.1 -6.3°
